LILACSAT-1 (LO-90)

Last updated on March 29, 2019, 12:02 a.m. UTC

1 42725U 98067ME  19087.71781172  .15670676  12603-4  45746-3 0  9992
2 42725  51.6064 319.7683 0009359 299.6698  60.5570 16.44549673105565

Satellite is not in orbit.